Location: New Canada
(47.1017°N, 68.5042°W)
Time: 06:59:42
(UTC+00:00)

EO-79 - Pass Details

Date: 09 April 2023
Orbit: 578 x 593 km, 98.0° (Epoch: 03 June)

Event Time Altitude Azimuth Distance (km) Brightness Sun altitude
Rises 06:50:02 0° 14° (NNE) 2,821 ? -27.8°
Reaches altitude 10° 06:52:12 10° 15° (NNE) 1,913 ? -27.6°
Enters shadow 06:55:16 49° 20° (NNE) 760 ? -27.2°
